When you browse on this site, cookies collect data to enhance your experience and personalize the content and advertising you see.
Visit our Privacy Policy to learn more. By continuing to use the site, you agree to this use of cookies and data.
  • In Hungary
  • List of Countries
  • For 7 days
  • Water Temperature
  • Satellite Maps
  • Weather Map
  • News
  • Weather Widgets
  • user-avatar
    Login

    Hourly Weather Kerns

    Today, 21 November, Wednesday

    Time Temperature Precipitation Wind Pressure Humidity
    00:00 +25°C° 0 mm 2 mps 758 mmHg 93%
    01:00 +25°C° 0 mm 2 mps 758 mmHg 94%
    02:00 +25°C° 0 mm 2 mps 758 mmHg 94%
    03:00 +25°C° 0 mm 2 mps 758 mmHg 94%
    04:00 +25°C° 0 mm 2 mps 757 mmHg 94%
    05:00 +25°C° 0 mm 2 mps 758 mmHg 90%
    06:00 +26°C° 0 mm 2 mps 758 mmHg 87%
    07:00 +27°C° 0 mm 2 mps 758 mmHg 83%
    08:00 +29°C° 0 mm 2 mps 758 mmHg 73%
    09:00 +31°C° 0 mm 2 mps 758 mmHg 62%
    10:00 +35°C° 0 mm 3 mps 758 mmHg 53%
    11:00 +35°C° 0 mm 3 mps 758 mmHg 50%
    12:00 +36°C° 0 mm 3 mps 757 mmHg 47%
    13:00 +37°C° 0 mm 3 mps 757 mmHg 45%
    14:00 +36°C° 0 mm 3 mps 756 mmHg 48%
    15:00 +35°C° 0 mm 3 mps 756 mmHg 51%
    16:00 +35°C° 0 mm 3 mps 756 mmHg 54%
    17:00 +33°C° 0 mm 3 mps 756 mmHg 63%
    18:00 +30°C° 0 mm 3 mps 756 mmHg 72%
    19:00 +28°C° 0 mm 2 mps 756 mmHg 82%
    20:00 +27°C° 0 mm 2 mps 757 mmHg 85%
    21:00 +27°C° 0 mm 2 mps 757 mmHg 89%
    22:00 +26°C° 0 mm 2 mps 758 mmHg 93%
    23:00 +26°C° 0 mm 2 mps 757 mmHg 93%

    Tomorrow, 22 November, Thursday

    Time Temperature Precipitation Wind Pressure Humidity
    00:00 +26°C° 0 mm 2 mps 757 mmHg 94%
    01:00 +26°C° 0 mm 2 mps 757 mmHg 94%
    02:00 +26°C° 0 mm 1 mps 757 mmHg 94%
    03:00 +26°C° 0 mm 1 mps 757 mmHg 93%
    04:00 +26°C° 0 mm 1 mps 757 mmHg 93%
    05:00 +27°C° 0 mm 1 mps 757 mmHg 89%
    06:00 +28°C° 0 mm 1 mps 757 mmHg 86%
    07:00 +28°C° 0 mm 1 mps 758 mmHg 83%
    08:00 +31°C° 0 mm 2 mps 758 mmHg 71%
    09:00 +35°C° 0 mm 2 mps 758 mmHg 60%
    10:00 +37°C° 0 mm 3 mps 758 mmHg 49%
    11:00 +37°C° 0.4 mm 3 mps 758 mmHg 51%
    12:00 +36°C° 0.4 mm 3 mps 757 mmHg 54%
    13:00 +36°C° 0.4 mm 4 mps 756 mmHg 57%
    14:00 +36°C° 0.4 mm 4 mps 756 mmHg 58%
    15:00 +35°C° 0.4 mm 3 mps 756 mmHg 59%
    16:00 +35°C° 0.4 mm 3 mps 755 mmHg 61%
    17:00 +34°C° 0.5 mm 3 mps 756 mmHg 68%
    18:00 +31°C° 0.5 mm 2 mps 756 mmHg 75%
    19:00 +29°C° 0.5 mm 2 mps 756 mmHg 83%
    20:00 +29°C° 0.3 mm 2 mps 757 mmHg 84%
    21:00 +29°C° 0.3 mm 2 mps 757 mmHg 85%
    22:00 +29°C° 0.3 mm 2 mps 758 mmHg 86%
    23:00 +28°C° 0.1 mm 2 mps 757 mmHg 86%

    Day after tomorrow, 23 November, Friday

    Time Temperature Precipitation Wind Pressure Humidity
    00:00 +28°C° 0.1 mm 2 mps 757 mmHg 87%
    01:00 +28°C° 0.1 mm 3 mps 757 mmHg 87%
    02:00 +28°C° 0.1 mm 3 mps 757 mmHg 88%
    03:00 +27°C° 0.1 mm 3 mps 757 mmHg 90%
    04:00 +27°C° 0.1 mm 3 mps 756 mmHg 92%
    05:00 +28°C° 0 mm 2 mps 757 mmHg 87%
    06:00 +29°C° 0 mm 2 mps 757 mmHg 83%
    07:00 +30°C° 0 mm 2 mps 758 mmHg 79%
    08:00 +32°C° 0.3 mm 2 mps 758 mmHg 69%
    09:00 +36°C° 0.3 mm 2 mps 758 mmHg 60%
    10:00 +39°C° 0.3 mm 2 mps 758 mmHg 50%
    11:00 +39°C° 0.3 mm 3 mps 757 mmHg 50%
    12:00 +39°C° 0.3 mm 3 mps 757 mmHg 50%
    13:00 +40°C° 0.3 mm 4 mps 757 mmHg 49%
    14:00 +38°C° 0.6 mm 4 mps 756 mmHg 55%
    15:00 +36°C° 0.6 mm 4 mps 756 mmHg 62%
    16:00 +35°C° 0.6 mm 3 mps 755 mmHg 68%
    17:00 +33°C° 0.9 mm 3 mps 756 mmHg 74%
    18:00 +31°C° 0.9 mm 3 mps 756 mmHg 81%
    19:00 +29°C° 0.9 mm 2 mps 757 mmHg 88%
    20:00 +29°C° 0.3 mm 2 mps 757 mmHg 88%
    21:00 +29°C° 0.3 mm 2 mps 758 mmHg 88%
    22:00 +29°C° 0.3 mm 2 mps 758 mmHg 89%
    23:00 +28°C° 0.3 mm 2 mps 758 mmHg 90%

    24 November, Saturday

    Time Temperature Precipitation Wind Pressure Humidity
    00:00 +28°C° 0.3 mm 2 mps 758 mmHg 91%
    01:00 +28°C° 0.3 mm 2 mps 757 mmHg 92%
    02:00 +28°C° 0 mm 2 mps 757 mmHg 92%
    03:00 +27°C° 0 mm 2 mps 757 mmHg 93%
    04:00 +27°C° 0 mm 2 mps 757 mmHg 94%
    05:00 +28°C° 0 mm 2 mps 758 mmHg 90%
    06:00 +29°C° 0 mm 2 mps 758 mmHg 86%
    07:00 +30°C° 0 mm 2 mps 759 mmHg 82%
    08:00 +33°C° 0.1 mm 1 mps 759 mmHg 69%
    09:00 +36°C° 0.1 mm 1 mps 759 mmHg 56%
    10:00 +40°C° 0.1 mm 1 mps 759 mmHg 43%
    11:00 +40°C° 0 mm 2 mps 758 mmHg 44%
    12:00 +39°C° 0 mm 3 mps 757 mmHg 45%
    13:00 +39°C° 0 mm 3 mps 757 mmHg 46%
    14:00 +38°C° 0.4 mm 3 mps 756 mmHg 51%
    15:00 +37°C° 0.4 mm 3 mps 756 mmHg 56%
    16:00 +36°C° 0.4 mm 3 mps 755 mmHg 61%
    17:00 +34°C° 0 mm 3 mps 756 mmHg 69%
    18:00 +33°C° 0 mm 3 mps 756 mmHg 77%
    19:00 +30°C° 0 mm 3 mps 756 mmHg 85%
    20:00 +30°C° 0 mm 2 mps 757 mmHg 87%
    21:00 +29°C° 0 mm 2 mps 757 mmHg 89%
    22:00 +29°C° 0 mm 2 mps 758 mmHg 91%
    23:00 +28°C° 0 mm 2 mps 757 mmHg 92%

    25 November, Sunday

    Time Temperature Precipitation Wind Pressure Humidity
    00:00 +28°C° 0 mm 2 mps 757 mmHg 93%
    01:00 +28°C° 0 mm 2 mps 757 mmHg 94%
    02:00 +28°C° 0 mm 2 mps 757 mmHg 94%
    03:00 +27°C° 0 mm 2 mps 757 mmHg 94%
    04:00 +27°C° 0 mm 2 mps 757 mmHg 94%
    05:00 +28°C° 0 mm 2 mps 757 mmHg 89%
    06:00 +29°C° 0 mm 2 mps 758 mmHg 85%
    07:00 +30°C° 0 mm 2 mps 758 mmHg 81%
    08:00 +34°C° 0 mm 3 mps 758 mmHg 70%
    09:00 +36°C° 0 mm 3 mps 758 mmHg 58%
    10:00 +39°C° 0 mm 3 mps 758 mmHg 47%
    11:00 +40°C° 0 mm 3 mps 757 mmHg 43%
    12:00 +42°C° 0 mm 4 mps 756 mmHg 38%
    13:00 +43°C° 0 mm 4 mps 755 mmHg 33%
    14:00 +42°C° 0 mm 4 mps 755 mmHg 39%
    15:00 +40°C° 0 mm 4 mps 754 mmHg 44%
    16:00 +38°C° 0 mm 4 mps 754 mmHg 49%
    17:00 +36°C° 0 mm 4 mps 754 mmHg 60%
    18:00 +34°C° 0 mm 4 mps 755 mmHg 70%
    19:00 +32°C° 0 mm 4 mps 755 mmHg 81%
    20:00 +32°C° 0 mm 4 mps 756 mmHg 85%
    21:00 +30°C° 0 mm 3 mps 756 mmHg 89%
    22:00 +29°C° 0 mm 3 mps 756 mmHg 93%
    23:00 +29°C° 0 mm 3 mps 756 mmHg 93%

    26 November, Monday

    Time Temperature Precipitation Wind Pressure Humidity
    00:00 +29°C° 0 mm 3 mps 756 mmHg 93%
    01:00 +29°C° 0 mm 3 mps 756 mmHg 92%
    02:00 +29°C° 0 mm 3 mps 756 mmHg 92%
    03:00 +29°C° 0 mm 3 mps 756 mmHg 91%
    04:00 +28°C° 0 mm 3 mps 755 mmHg 91%
    05:00 +29°C° 0 mm 3 mps 756 mmHg 86%
    06:00 +30°C° 0 mm 3 mps 757 mmHg 82%
    07:00 +31°C° 0 mm 3 mps 757 mmHg 77%
    08:00 +34°C° 0 mm 3 mps 757 mmHg 67%
    09:00 +37°C° 0 mm 3 mps 757 mmHg 57%
    10:00 +39°C° 0 mm 3 mps 757 mmHg 47%
    11:00 +42°C° 0 mm 4 mps 756 mmHg 40%
    12:00 +43°C° 0 mm 4 mps 755 mmHg 33%
    13:00 +45°C° 0 mm 4 mps 755 mmHg 26%
    14:00 +43°C° 0 mm 4 mps 754 mmHg 31%
    15:00 +41°C° 0 mm 4 mps 754 mmHg 35%
    16:00 +40°C° 0 mm 4 mps 753 mmHg 40%
    17:00 +37°C° 0 mm 4 mps 754 mmHg 49%
    18:00 +35°C° 0 mm 4 mps 754 mmHg 59%
    19:00 +33°C° 0 mm 4 mps 755 mmHg 69%
    20:00 +33°C° 0 mm 3 mps 755 mmHg 73%
    21:00 +31°C° 0 mm 3 mps 756 mmHg 77%
    22:00 +30°C° 0 mm 3 mps 756 mmHg 82%
    23:00 +30°C° 0 mm 3 mps 756 mmHg 82%
    Show more